Location: Newark
(44.3681°N, 100.3364°W)
Time: 21:43:49
(UTC+00:00)

Altair - Visible Passes

Search period start: 17 February 2020 00:00
Search period end: 27 February 2020 00:00
Orbit: 1502 x 1682 km, 47.2° (Epoch: 17 February)

Date Brightness Start Highest point End Pass type
(mag) Time Alt. Az. Time Alt. Az. Time Alt. Az.
17 Feb 9.1 08:24:17 23° E 08:24:17 23° E 08:27:43 10° ENE visible
17 Feb 7.3 10:22:17 82° W 10:22:50 89° NNW 10:32:55 10° ENE visible
17 Feb 7.7 12:20:18 18° W 12:28:12 77° N 12:38:23 10° E visible
18 Feb 9.4 08:00:23 17° ENE 08:00:23 17° ENE 08:02:26 10° ENE visible
18 Feb 7.5 09:58:23 79° ENE 09:58:23 79° ENE 10:07:40 10° ENE visible
18 Feb 7.7 11:56:24 25° W 12:02:57 76° N 12:13:07 10° E visible
19 Feb 9.6 07:36:27 12° ENE 07:36:27 12° ENE 07:37:09 10° ENE visible
19 Feb 7.8 09:34:28 62° ENE 09:34:28 62° ENE 09:42:26 10° ENE visible
19 Feb 7.6 11:32:28 33° WNW 11:37:42 76° N 11:47:50 10° E visible
20 Feb 8.1 09:10:32 49° ENE 09:10:32 49° ENE 09:17:11 10° ENE visible
20 Feb 7.6 11:08:32 42° WNW 11:12:27 76° N 11:22:33 10° E visible
21 Feb 8.5 08:46:35 38° ENE 08:46:35 38° ENE 08:51:57 10° ENE visible
21 Feb 7.5 10:44:35 54° WNW 10:47:12 76° N 10:57:17 10° E visible
21 Feb 7.7 12:42:36 10° WNW 12:52:30 86° SSW 13:02:40 10° ESE visible
22 Feb 8.9 08:22:39 29° ENE 08:22:39 29° ENE 08:26:43 10° ENE visible
22 Feb 7.4 10:20:38 67° NW 10:21:58 76° N 10:32:01 10° E visible
22 Feb 7.6 12:18:39 15° WNW 12:27:17 88° SSW 12:37:27 10° ESE visible
23 Feb 9.2 07:58:42 22° ENE 07:58:42 22° ENE 08:01:29 10° ENE visible
23 Feb 7.5 09:56:42 76° N 09:56:43 76° N 10:06:45 10° E visible
23 Feb 7.6 11:54:42 21° WNW 12:02:04 89° NNE 12:12:14 10° ESE visible
24 Feb 9.4 07:34:45 16° ENE 07:34:45 16° ENE 07:36:15 10° ENE visible
24 Feb 7.6 09:32:45 69° NE 09:32:45 69° NE 09:41:28 10° E visible
24 Feb 7.6 11:30:46 28° WNW 11:36:51 87° NNE 11:46:59 10° ESE visible
25 Feb 9.7 07:10:49 11° ENE 07:10:49 11° ENE 07:11:02 10° ENE visible
25 Feb 8.0 09:08:50 55° ENE 09:08:50 55° ENE 09:16:12 10° ENE visible
25 Feb 7.5 11:06:50 36° WNW 11:11:38 85° NNE 11:21:45 10° ESE visible
26 Feb 8.3 08:44:56 43° ENE 08:44:56 43° ENE 08:50:58 10° ENE visible
26 Feb 7.5 10:42:56 47° WNW 10:46:25 83° NNE 10:56:29 10° ESE visible
26 Feb 7.9 12:41:34 10° WNW 12:51:04 56° SW 13:00:49 10° SE visible
